User: anonymous   Login
Location: Sunny Point
(33.0946°N, 85.0574°W)
Time: 07:43:42
(UTC+00:00)
Language:

Envisat - Orbit

View from above orbital plane
View from above orbital plane
View from above satellite
View from above satellite

Ground track
Ground track

The orbit data is extracted from the following two-line orbital elements,

1 27386U 02009A   24172.92003465  .00000152  00000-0  63511-4 0  9990
2 27386  98.2824 133.8786 0001377  90.9396 334.8398 14.38592428169045
Epoch (UTC): 20 June 2024 22:04:50
Eccentricity: 0.0001377
inclination: 98.2824°
perigee height: 762 km
apogee height: 764 km
right ascension of ascending node: 133.8786°
argument of perigee: 90.9396°
revolutions per day: 14.38592428
mean anomaly at epoch: 334.8398°
orbit number at epoch: 16904

The dashed part of the orbit path shows where the satellite is in the earth's shadow,  

DLR